sat.trackr.live / text

‹ back to catalog

STARLINK-32006

NORAD 60029 · 2024-111P

PAYLOAD ACTIVE UNKNOWN

§ Identity

Operator
Country
US
Launch date
2024-06-08
Launch site
AFETR
Launch vehicle
Mass (kg)
RCS (m²)

Purposes: comms

External: N2YO · Heavens-Above · Gunter

§ Orbital elements

Epoch: 2026-09-21T15:26:02.220000Z

Period
93.85 min
Inclination
53.1593°
Eccentricity
0.0001136
Mean motion
15.34374074 rev/d
Perigee alt
462.0 km
Apogee alt
463.6 km
Semi-major
6,840.9 km
B*
9.0638e-5
RAAN
244.1109°
Arg perigee
94.3946°
Mean anomaly
265.7186°
Rev number
12,905

§ Raw data

STARLINK-320061 60029U 24111P   26264.64308125  .00002685  00000+0  90638-4 0  99952 60029  53.1593 244.1109 0001136  94.3946 265.7186 15.34374074129052

JSON: /api/v1/satellites/60029 · /tle

For live sub-satellite position, see the globe view (requires WebGL).

§ Visibility from observer

Set your observer location to see the next 7 days of passes ≥ 10°. The values pass through the URL so the page stays shareable.

No JS? Fill the form by hand. The geolocation button needs JavaScript.